[[{"header":{"parameterUnit":"m.s-1","parameterCategory":1,"la1":30.2991,"la2":30.254,"lo1":-89.0895,"lo2":-89.0444,"dy":0.0017,"dx":0.0017,"nx":28,"ny":28,"refTime":"2024-06-15T03:00:00:Z","depth":0,"parameterNumber":2,"parameterNumberName":"U-component_of_WINDS"},"data":[0,0,0,0,0,0,0,0,0,0,0,0,0,0,0,0,0,0,0,0,0,0,0,0,0,0,0,0,0,0,0,0,0,0,0,0,0,0,0,0,0,0,0,0,0,0,0,0,0,0,0,0,0,0,0,0,0,0,-4.8884,-4.8885,0,-4.8954,-4.8954,-4.8955,-4.8866,-4.8863,-4.8859,-4.8856,-4.8927,-4.8932,-4.8936,0,0,0,0,0,0,0,0,0,0,0,0,0,-4.8674,-4.8678,-4.8884,-4.8885,-4.8886,-4.8953,-4.8954,-4.8955,-4.8866,-4.8862,-4.8858,-4.8855,-4.8925,-4.8931,-4.8937,0,0,0,0,0,0,0,0,0,0,0,0,0,-4.8757,-4.868,-4.8884,-4.8849,-4.8847,-4.8953,-4.8954,-4.8956,-4.8867,-4.8862,-4.8857,-4.8853,-4.8923,-4.893,-4.8938,-4.9081,0,0,-4.896,-4.8963,0,0,0,0,0,0,0,0,-4.8752,-4.8764,-4.8854,-4.8852,-4.885,-4.8896,-4.8906,-4.8997,-4.8868,-4.886,-4.8856,-4.8851,-4.8921,-4.8928,-4.8951,-4.9084,-4.9087,-4.8961,-4.8965,-4.8968,-4.8971,0,0,0,0,0,0,0,-4.8746,-4.8761,-4.8911,-4.8855,-4.8853,-4.8831,-4.8837,-4.8923,-4.8916,-4.886,-4.8854,-4.8863,-4.8918,-4.8945,-4.8952,-4.9088,-4.8961,-4.8967,-4.8972,-4.8975,-4.9341,-4.9346,0,0,0,0,0,0,-4.8745,-4.8757,-4.8909,-4.8913,-4.8788,-4.8838,-4.8845,-4.8886,-4.8915,-4.8915,-4.8867,-4.8859,-4.8934,-4.8944,-4.8955,-4.9123,-4.8968,-4.8975,-4.898,-4.9336,-4.9342,-4.9348,0,0,0,0,0,0,-4.8741,-4.8759,-4.8906,-4.8833,-4.885,-4.8847,-4.8893,-4.889,-4.8916,-4.8921,-4.8919,-4.8895,-4.8931,-4.8944,-4.905,-4.9125,-4.8979,-4.8985,-4.933,-4.9338,-4.9345,-4.9463,0,0,0,0,0,0,-4.8735,-4.8758,-4.8812,-4.8835,-4.8855,-4.9001,-4.8898,-4.8895,-4.8929,-4.8919,-4.8947,-4.8947,-4.8928,-4.904,-4.9057,-4.9132,-4.8991,-4.9323,-4.9333,-4.9343,-4.9452,-4.9474,-4.9492,0,0,0,0,0,-4.8728,-4.8843,-4.8816,-4.8834,-4.8922,-4.9005,-4.9016,-4.8993,-4.8935,-4.899,-4.8993,-4.8946,-4.9114,-4.9051,-4.907,-4.9149,-4.9318,-4.933,-4.9342,-4.9443,-4.9469,-4.9492,0,0,0,0,0,0,-4.8828,-4.8845,-4.8815,-4.8941,-4.8973,-4.899,-4.9058,-4.9022,-4.907,-4.9058,-4.9027,-4.9034,-4.9147,-4.9159,-4.9088,-4.9289,-4.9206,-4.9223,-4.9277,-4.9302,-4.9322,-4.9316,-4.8997,0,0,0,0,0,-4.8865,-4.8931,-4.8942,-4.9052,-4.9069,-4.9062,-4.9097,-4.9076,-4.9107,-4.912,-4.9131,-4.9163,-4.9223,-4.9263,-4.9319,-4.9454,-4.9459,-4.9517,-4.9537,-4.9554,-4.9568,-4.964,-4.9666,-4.9388,-4.9387,-4.9387,0,0,-4.8941,-4.8959,-4.9002,-4.9073,-4.9094,-4.9163,-4.9073,-4.915,-4.9201,-4.9132,-4.9232,-4.9242,-4.9275,-4.9397,-4.945,-4.9409,-4.9646,-4.9569,-4.9582,-4.9587,-4.9655,-4.9682,-4.9705,-4.9396,-4.9394,-4.9393,0,0,-4.9116,-4.9136,-4.9229,-4.9254,-4.9288,-4.9282,-4.9305,-4.9329,-4.9333,-4.9433,-4.9383,-4.9443,-4.9547,-4.9573,-4.96,-4.9787,-4.9745,-4.9806,-4.991,-4.9981,-5.0003,-5.0022,-5.0088,-5.0112,-4.982,-4.982,-4.9821,0,-4.9206,-4.9308,-4.9282,-4.9363,-4.9395,-4.9337,-4.9431,-4.9456,-4.9507,-4.9531,-4.9485,-4.9614,-4.9633,-4.9759,-4.9805,-4.9829,-4.9854,-4.9801,-5.0002,-5.0021,-5.0038,-5.0101,-5.0126,-4.9827,-4.9827,-4.9826,-4.9825,0,-4.9417,-4.9489,-4.9561,-4.9612,-4.9652,-4.974,-4.9727,-4.9771,-4.9748,-4.9747,-4.985,-4.9871,-4.993,-4.9958,-4.9936,-5.0082,-5.0056,-5.0006,-4.9923,-5.0072,-5.013,-5.0154,-4.9838,-4.9835,-4.9833,-4.9831,0,0,-4.9655,-4.9692,-4.9719,-4.9741,-4.9776,-4.9831,-4.9916,-4.9973,-5.0012,-5.005,-5.012,-5.021,-5.0165,-5.0196,-5.0176,-5.0238,-5.0384,-5.0181,-5.0181,-5.0217,-5.0546,-5.0582,-5.061,-5.0357,-5.0362,-5.0365,-5.0543,0,-4.9829,-4.9976,-4.9955,-5.0096,-5.0162,-5.0109,-5.0182,-5.0212,-5.0214,-5.027,-5.0272,-5.0336,-5.0272,-5.029,-5.035,-5.0354,-5.0449,-5.0341,-5.0422,-5.0425,-5.0414,-5.0641,-5.0679,-5.0845,-5.0565,-5.0569,-5.0572,0,-5.0051,-5.0097,-5.0245,-5.027,-5.0297,-5.0364,-5.0415,-5.047,-5.0502,-5.0499,-5.0535,-5.0504,-5.0589,-5.0506,-5.0622,-5.0549,-5.0581,-5.0589,-5.0595,-5.06,-5.0507,-5.0652,-5.0898,-5.0923,-5.0608,-5.0605,-5.0602,0,-5.0209,-5.0308,-5.0409,-5.0431,-5.0462,-5.0511,-5.0526,-5.0554,-5.059,-5.0636,-5.0659,-5.0714,-5.0744,-5.0787,-5.0772,-5.0713,-5.0892,-5.0807,-5.0891,-5.0892,-5.093,-5.0928,-5.1185,-5.0953,-5.0953,-5.0952,-5.0952,0,-5.0405,-5.0497,-5.0481,-5.0543,-5.0645,-5.0621,-5.0723,-5.0732,-5.0757,-5.082,-5.0777,-5.0837,-5.0815,-5.0874,-5.0863,-5.0961,-5.0975,-5.0975,-5.0971,-5.0978,-5.0978,-5.0998,-5.0985,-5.0959,-5.0958,-5.0956,-5.0955,0,-5.0598,-5.0591,-5.0697,-5.0719,-5.0727,-5.0801,-5.0819,-5.0878,-5.0877,-5.0957,-5.0975,-5.0973,-5.1041,-5.103,-5.1105,-5.1098,-5.122,-5.1202,-5.1209,-5.1205,-5.1289,-5.1281,-5.1567,-5.1603,-5.1349,-5.1352,-5.1354,0,-5.0723,-5.0792,-5.0822,-5.0861,-5.088,-5.0944,-5.0981,-5.096,-5.1001,-5.1043,-5.1097,-5.116,-5.121,-5.132,-5.1325,-5.1382,-5.1365,-5.1461,-5.1373,-5.1379,-5.1366,-5.1361,-5.1368,-5.1478,-5.1481,-5.1483,-5.1485,0,-5.0945,-5.0938,-5.0993,-5.1047,-5.1093,-5.1134,-5.1172,-5.1206,-5.1189,-5.1237,-5.1305,-5.1344,-5.142,-5.1484,-5.1537,-5.1553,-5.1517,-5.1513,-5.1536,-5.1544,-5.1544,-5.1545,-5.1256,-5.1506,-5.1504,-5.1503,-5.1502,-5.1501,-5.1107,-5.1166,-5.1197,-5.1259,-5.1286,-5.1322,-5.1378,-5.1384,-5.1441,-5.1501,-5.1486,-5.1563,-5.1595,-5.1663,-5.1685,-5.1745,-5.171,-5.1742,-5.175,-5.1759,-5.1769,-5.1536,-5.1755,-5.1754,-5.1754,-5.1753,-5.1753,0,-5.1326,-5.1343,-5.1401,-5.1455,-5.1505,-5.1467,-5.1507,-5.1551,-5.1619,-5.1651,-5.1701,-5.178,-5.1842,-5.1853,-5.1912,-5.1958,-5.1943,-5.1974,-5.197,-5.1974,-5.1797,-5.1771,-5.1985,-5.1985,-5.1985,-5.1985,-5.1985,-5.1985,-5.1446,-5.1545,-5.1542,-5.1653,-5.167,-5.1745,-5.1771,-5.1804,-5.183,-5.192,-5.1971,-5.1978,-5.2002,-5.2062,-5.2117,-5.2119,-5.2142,-5.218,-5.2175,-5.201,-5.1986,-5.1964,-5.194,-5.2185,-5.2186,-5.2347,-5.2348,-5.235]},{"header":{"parameterUnit":"m.s-1","parameterCategory":1,"la1":30.2991,"la2":30.254,"lo1":-89.0895,"lo2":-89.0444,"dy":0.0017,"dx":0.0017,"nx":28,"ny":28,"refTime":"2024-06-15T03:00:00:Z","depth":0,"parameterNumber":3,"parameterNumberName":"V-component_of_WINDS"},"data":[0,0,0,0,0,0,0,0,0,0,0,0,0,0,0,0,0,0,0,0,0,0,0,0,0,0,0,0,0,0,0,0,0,0,0,0,0,0,0,0,0,0,0,0,0,0,0,0,0,0,0,0,0,0,0,0,0,0,7.0089,7.009,0,7.0173,7.0174,7.0175,7.0136,7.0134,7.0132,7.013,7.0207,7.021,7.0214,0,0,0,0,0,0,0,0,0,0,0,0,0,6.9887,6.9891,7.0089,7.009,7.0091,7.0173,7.0174,7.0175,7.0136,7.0134,7.0131,7.0129,7.0205,7.021,7.0215,0,0,0,0,0,0,0,0,0,0,0,0,0,6.9973,6.9893,7.0089,7.0082,7.0082,7.0172,7.0174,7.0175,7.0137,7.0134,7.0131,7.0128,7.0204,7.0209,7.0215,7.0314,0,0,7.0234,7.0236,0,0,0,0,0,0,0,0,6.9968,6.9981,7.0082,7.0083,7.0083,7.0141,7.0131,7.0221,7.0138,7.0116,7.013,7.0126,7.0187,7.0194,7.0216,7.0318,7.0321,7.0234,7.0238,7.024,7.0242,0,0,0,0,0,0,0,6.9962,6.9977,7.0122,7.0083,7.0084,7.0072,7.0081,7.0148,7.0167,7.0117,7.0115,7.0126,7.0186,7.021,7.0217,7.0322,7.0234,7.0239,7.0243,7.0245,7.0508,7.0511,0,0,0,0,0,0,6.9958,6.9972,7.0119,7.0124,7.0017,7.0078,7.0088,7.0125,7.0167,7.017,7.0128,7.0124,7.0202,7.0211,7.022,7.0337,7.024,7.0246,7.0249,7.0505,7.0509,7.0512,0,0,0,0,0,0,6.9954,6.9971,7.0116,7.0048,7.0065,7.0085,7.0127,7.0129,7.0153,7.0175,7.0177,7.015,7.02,7.0212,7.0291,7.0339,7.0248,7.0254,7.0501,7.0506,7.0511,7.0572,0,0,0,0,0,0,6.9948,6.997,7.001,7.0049,7.0069,7.0188,7.013,7.0132,7.0164,7.0159,7.0196,7.0199,7.0198,7.0283,7.0297,7.0345,7.0259,7.0496,7.0503,7.0509,7.0565,7.0578,7.0589,0,0,0,0,0,6.9941,7.0022,7.0012,7.003,7.0119,7.0191,7.0202,7.0202,7.0168,7.0206,7.0221,7.0198,7.0333,7.0291,7.0307,7.0358,7.0493,7.0501,7.0508,7.056,7.0576,7.0589,0,0,0,0,0,0,6.9983,7.0026,7.0016,7.0112,7.0149,7.0184,7.0232,7.0219,7.0263,7.0256,7.0252,7.026,7.0343,7.0359,7.0312,7.0455,7.0407,7.0418,7.0441,7.0456,7.0468,7.046,7.0263,0,0,0,0,0,7.0005,7.0062,7.0096,7.0177,7.0197,7.0212,7.0243,7.0241,7.0277,7.0291,7.0311,7.0345,7.0394,7.0427,7.0474,7.057,7.0575,7.0612,7.0624,7.0634,7.0642,7.0691,7.0707,7.0538,7.0538,7.0537,0,0,7.0047,7.0078,7.0114,7.0187,7.0215,7.0271,7.0225,7.0287,7.0328,7.0299,7.0376,7.0393,7.0429,7.0517,7.0557,7.0533,7.0691,7.0644,7.0651,7.0654,7.0701,7.0717,7.0731,7.0543,7.0542,7.0541,0,0,7.0154,7.0185,7.0255,7.0285,7.033,7.034,7.0357,7.0396,7.0406,7.0484,7.0464,7.0512,7.0598,7.0625,7.065,7.077,7.0749,7.0786,7.0846,7.0894,7.0908,7.0919,7.0959,7.0973,7.0795,7.0795,7.0795,0,7.02,7.0288,7.0292,7.0357,7.0388,7.037,7.0439,7.0467,7.0523,7.0544,7.0518,7.0627,7.0651,7.0743,7.0773,7.0795,7.0812,7.0779,7.0906,7.0918,7.0929,7.0966,7.0981,7.0799,7.0799,7.0798,7.0798,0,7.0341,7.0402,7.0454,7.0512,7.055,7.0616,7.0629,7.0666,7.0661,7.0674,7.0752,7.0781,7.0833,7.0856,7.0851,7.0948,7.0932,7.0907,7.0857,7.0949,7.0984,7.0998,7.0805,7.0803,7.0802,7.0801,0,0,7.0471,7.0535,7.0553,7.0579,7.0628,7.0673,7.0739,7.0794,7.0824,7.0865,7.0917,7.0992,7.0969,7.0998,7.0996,7.1039,7.1129,7.1008,7.1009,7.1026,7.1235,7.125,7.1267,7.1118,7.1121,7.1123,7.123,0,7.0578,7.0696,7.0703,7.0808,7.0863,7.0848,7.0905,7.094,7.0954,7.1,7.1015,7.1067,7.1035,7.1052,7.1095,7.1109,7.117,7.1102,7.1162,7.1164,7.1149,7.1286,7.1302,7.1402,7.1244,7.1247,7.1248,0,7.0718,7.0766,7.0877,7.0919,7.0942,7.0993,7.1043,7.109,7.1129,7.1136,7.117,7.1162,7.1226,7.118,7.1266,7.122,7.1246,7.1257,7.1261,7.1262,7.1208,7.1287,7.1434,7.1447,7.1271,7.1269,7.1267,0,7.0797,7.089,7.0968,7.0991,7.1043,7.1079,7.1101,7.1138,7.117,7.1214,7.1234,7.1284,7.131,7.1348,7.1353,7.1319,7.144,7.1393,7.1444,7.1443,7.1465,7.1463,7.1614,7.149,7.149,7.1489,7.1489,0,7.0913,7.098,7.1005,7.1052,7.1127,7.1135,7.1208,7.1228,7.1261,7.131,7.1301,7.1346,7.1353,7.14,7.1405,7.1474,7.1487,7.1492,7.1491,7.149,7.1489,7.1503,7.1494,7.1493,7.1492,7.1492,7.1491,0,7.1012,7.1031,7.1115,7.1159,7.1171,7.1224,7.126,7.1304,7.1319,7.1382,7.1396,7.1418,7.1473,7.1484,7.1548,7.1551,7.1633,7.1628,7.162,7.1618,7.1666,7.166,7.1828,7.1849,7.1715,7.1716,7.1718,0,7.1082,7.1134,7.1185,7.1219,7.1244,7.1299,7.1333,7.1343,7.1378,7.1428,7.1466,7.1521,7.1564,7.1652,7.1671,7.172,7.1713,7.1769,7.172,7.1717,7.1709,7.1704,7.1708,7.1776,7.1778,7.1779,7.178,0,7.1204,7.1212,7.1263,7.1318,7.136,7.1403,7.1443,7.1471,7.1486,7.1526,7.1584,7.1618,7.1686,7.1738,7.1788,7.1808,7.1795,7.1797,7.181,7.1806,7.1799,7.18,7.1641,7.1791,7.179,7.1789,7.1788,7.1788,7.1288,7.1333,7.1376,7.1433,7.1466,7.1505,7.1549,7.1571,7.1621,7.1678,7.1681,7.1743,7.178,7.1846,7.187,7.1916,7.1898,7.1919,7.1923,7.1927,7.1929,7.1796,7.1926,7.1925,7.1925,7.1925,7.1925,0,7.1406,7.1434,7.1487,7.1546,7.1591,7.1581,7.1626,7.1662,7.1718,7.1756,7.1801,7.1866,7.1918,7.1944,7.1995,7.2027,7.2023,7.204,7.2035,7.2039,7.1944,7.1926,7.2043,7.2043,7.2043,7.2043,7.2043,7.2043,7.1472,7.1548,7.1561,7.1653,7.1679,7.1743,7.1769,7.1804,7.1834,7.1909,7.1953,7.1972,7.2004,7.2057,7.2104,7.211,7.2127,7.2146,7.2149,7.2058,7.2046,7.2034,7.2017,7.2151,7.2151,7.2239,7.224,7.2241]}]]